owner,sensor,date,latitude,longitude,vertical_datum,sea_water_temperature,qcFlag
Murphy,ioos:station:wmo:42877:2,2024-03-01T00:03:00Z,27.7214,-91.1135,9.5,21.3,11111222
Murphy,ioos:station:wmo:42877:2,2024-03-01T00:13:00Z,27.7214,-91.1136,9.4,21.3,11111222
Murphy,ioos:station:wmo:42877:2,2024-03-01T00:23:00Z,27.7213,-91.1136,9.4,21.3,11111222
Murphy,ioos:station:wmo:42877:2,2024-03-01T00:33:00Z,27.7214,-91.1136,9.4,21.3,11111222
Murphy,ioos:station:wmo:42877:2,2024-03-01T00:43:00Z,27.7214,-91.1136,9.4,21.3,11111222
Murphy,ioos:station:wmo:42877:2,2024-03-01T00:53:00Z,27.7214,-91.1136,9.4,21.3,11111222
Murphy,ioos:station:wmo:42877:2,2024-03-01T01:03:00Z,27.7213,-91.1135,9.4,21.3,11111222
Murphy,ioos:station:wmo:42877:2,2024-03-01T01:13:00Z,27.7213,-91.1136,9.4,21.3,11111222
Murphy,ioos:station:wmo:42877:2,2024-03-01T01:23:00Z,27.7213,-91.1136,9.4,21.3,11111222
Murphy,ioos:station:wmo:42877:2,2024-03-01T01:33:00Z,27.7213,-91.1135,9.4,21.3,11111222
Murphy,ioos:station:wmo:42877:2,2024-03-01T01:43:00Z,27.7212,-91.1135,9.4,21.3,11111222
Murphy,ioos:station:wmo:42877:2,2024-03-01T01:53:00Z,27.7212,-91.1135,9.5,21.3,11111222
Murphy,ioos:station:wmo:42877:2,2024-03-01T02:03:00Z,27.7213,-91.1135,9.5,21.3,11111222
Murphy,ioos:station:wmo:42877:2,2024-03-01T02:13:00Z,27.7212,-91.1135,9.5,21.3,11111222
Murphy,ioos:station:wmo:42877:2,2024-03-01T02:23:00Z,27.7212,-91.1135,9.5,21.3,11111222
Murphy,ioos:station:wmo:42877:2,2024-03-01T02:33:00Z,27.7213,-91.1135,9.5,21.3,11111222
Murphy,ioos:station:wmo:42877:2,2024-03-01T02:43:00Z,27.7214,-91.1135,9.5,21.3,11111222
Murphy,ioos:station:wmo:42877:2,2024-03-01T02:53:00Z,27.7213,-91.1135,9.5,21.3,11111222
Murphy,ioos:station:wmo:42877:2,2024-03-01T03:03:00Z,27.7213,-91.1135,9.5,21.3,11111222
Murphy,ioos:station:wmo:42877:2,2024-03-01T03:13:00Z,27.7214,-91.1135,9.5,21.3,11111222
Murphy,ioos:station:wmo:42877:2,2024-03-01T03:23:00Z,27.7214,-91.1135,9.5,21.3,11111222
Murphy,ioos:station:wmo:42877:2,2024-03-01T03:33:00Z,27.7214,-91.1135,9.6,21.3,11111222
Murphy,ioos:station:wmo:42877:2,2024-03-01T03:43:00Z,27.7213,-91.1136,9.6,21.3,11111222
Murphy,ioos:station:wmo:42877:2,2024-03-01T03:53:00Z,27.7214,-91.1135,9.5,21.3,11111222
Murphy,ioos:station:wmo:42877:2,2024-03-01T04:03:00Z,27.7213,-91.1136,9.5,21.2,11111222
Murphy,ioos:station:wmo:42877:2,2024-03-01T04:13:00Z,27.7214,-91.1135,9.4,21.2,11111222
Murphy,ioos:station:wmo:42877:2,2024-03-01T04:23:00Z,27.7213,-91.1135,9.4,21.2,11111222
Murphy,ioos:station:wmo:42877:2,2024-03-01T04:33:00Z,27.7214,-91.1136,9.4,21.2,11111222
Murphy,ioos:station:wmo:42877:2,2024-03-01T04:43:00Z,27.7213,-91.1135,9.5,21.2,11111222
Murphy,ioos:station:wmo:42877:2,2024-03-01T04:53:00Z,27.7214,-91.1135,9.5,21.2,11111222
Murphy,ioos:station:wmo:42877:2,2024-03-01T05:03:00Z,27.7214,-91.1136,9.5,21.2,11111222
Murphy,ioos:station:wmo:42877:2,2024-03-01T05:13:00Z,27.7214,-91.1135,9.5,21.2,11111222
Murphy,ioos:station:wmo:42877:2,2024-03-01T05:23:00Z,27.7213,-91.1136,9.5,21.2,11111222
Murphy,ioos:station:wmo:42877:2,2024-03-01T05:33:00Z,27.7213,-91.1136,9.5,21.2,11111222
Murphy,ioos:station:wmo:42877:2,2024-03-01T05:43:00Z,27.7213,-91.1135,9.5,21.2,11111222
Murphy,ioos:station:wmo:42877:2,2024-03-01T05:53:00Z,27.7214,-91.1136,9.5,21.2,11111222
Murphy,ioos:station:wmo:42877:2,2024-03-01T06:03:00Z,27.7213,-91.1135,9.5,21.2,11111222
Murphy,ioos:station:wmo:42877:2,2024-03-01T06:13:00Z,27.7213,-91.1136,9.5,21.2,11111222
Murphy,ioos:station:wmo:42877:2,2024-03-01T06:23:00Z,27.7214,-91.1135,9.7,21.2,11111222
Murphy,ioos:station:wmo:42877:2,2024-03-01T06:33:00Z,27.7214,-91.1135,9.7,21.2,11111222
Murphy,ioos:station:wmo:42877:2,2024-03-01T06:43:00Z,27.7213,-91.1135,9.7,21.2,11111222
Murphy,ioos:station:wmo:42877:2,2024-03-01T06:53:00Z,27.7213,-91.1136,9.7,21.2,11111222
Murphy,ioos:station:wmo:42877:2,2024-03-01T07:03:00Z,27.7213,-91.1136,9.7,21.2,11111222
Murphy,ioos:station:wmo:42877:2,2024-03-01T07:13:00Z,27.7214,-91.1135,9.7,21.2,11111222
Murphy,ioos:station:wmo:42877:2,2024-03-01T07:23:00Z,27.7213,-91.1135,9.7,21.2,11111222
Murphy,ioos:station:wmo:42877:2,2024-03-01T07:33:00Z,27.7213,-91.1135,9.9,21.2,11111222
Murphy,ioos:station:wmo:42877:2,2024-03-01T07:43:00Z,27.7213,-91.1135,9.9,21.2,11111222
Murphy,ioos:station:wmo:42877:2,2024-03-01T07:53:00Z,27.7212,-91.1135,9.9,21.3,11111222
Murphy,ioos:station:wmo:42877:2,2024-03-01T08:03:00Z,27.7212,-91.1135,9.9,21.3,11111222
Murphy,ioos:station:wmo:42877:2,2024-03-01T08:13:00Z,27.7216,-91.1136,9.7,21.2,11111222
Murphy,ioos:station:wmo:42877:2,2024-03-01T08:23:00Z,27.7215,-91.1137,9.9,21.2,11111222
Murphy,ioos:station:wmo:42877:2,2024-03-01T08:33:00Z,27.7216,-91.1137,10.1,21.2,11111222
Murphy,ioos:station:wmo:42877:2,2024-03-01T08:43:00Z,27.7216,-91.1137,10.1,21.2,11111222
Murphy,ioos:station:wmo:42877:2,2024-03-01T08:53:00Z,27.7216,-91.1137,10.1,21.2,11111222
Murphy,ioos:station:wmo:42877:2,2024-03-01T09:03:00Z,27.7216,-91.1137,10.1,21.2,11111222
Murphy,ioos:station:wmo:42877:2,2024-03-01T09:13:00Z,27.7216,-91.1137,10.1,21.2,11111222
Murphy,ioos:station:wmo:42877:2,2024-03-01T09:23:00Z,27.7216,-91.1137,10.1,21.2,11111222
Murphy,ioos:station:wmo:42877:2,2024-03-01T09:33:00Z,27.7216,-91.1137,10.1,21.2,11111222
Murphy,ioos:station:wmo:42877:2,2024-03-01T09:43:00Z,27.7216,-91.1137,10.1,21.2,11111222
Murphy,ioos:station:wmo:42877:2,2024-03-01T09:53:00Z,27.7215,-91.1137,10.1,21.2,11111222
Murphy,ioos:station:wmo:42877:2,2024-03-01T10:03:00Z,27.7216,-91.1137,10.1,21.2,11111222
Murphy,ioos:station:wmo:42877:2,2024-03-01T10:13:00Z,27.7216,-91.1137,10.1,21.2,11111222
Murphy,ioos:station:wmo:42877:2,2024-03-01T10:23:00Z,27.7216,-91.1138,9.6,21.1,11111222
Murphy,ioos:station:wmo:42877:2,2024-03-01T10:33:00Z,27.7216,-91.1137,9.6,21.2,11111222
Murphy,ioos:station:wmo:42877:2,2024-03-01T10:43:00Z,27.7216,-91.1138,9.6,21.1,11111222
Murphy,ioos:station:wmo:42877:2,2024-03-01T10:53:00Z,27.7216,-91.1138,9.6,21.2,11111222
Murphy,ioos:station:wmo:42877:2,2024-03-01T11:03:00Z,27.7216,-91.1138,9.6,21.1,11111222
Murphy,ioos:station:wmo:42877:2,2024-03-01T11:13:00Z,27.7216,-91.1137,9.6,21.2,11111222
Murphy,ioos:station:wmo:42877:2,2024-03-01T11:23:00Z,27.7216,-91.1138,9.6,21.2,11111222
Murphy,ioos:station:wmo:42877:2,2024-03-01T11:33:00Z,27.7216,-91.1137,9.6,21.2,11111222
Murphy,ioos:station:wmo:42877:2,2024-03-01T11:43:00Z,27.7215,-91.1137,9.6,21.2,11111222
Murphy,ioos:station:wmo:42877:2,2024-03-01T11:53:00Z,27.7216,-91.1138,9.7,21.1,11111222
Murphy,ioos:station:wmo:42877:2,2024-03-01T12:03:00Z,27.7216,-91.1139,9.6,21.1,11111222
Murphy,ioos:station:wmo:42877:2,2024-03-01T12:13:00Z,27.7216,-91.1140,9.6,21.1,11111222
Murphy,ioos:station:wmo:42877:2,2024-03-01T12:23:00Z,27.7216,-91.1141,9.6,21.2,11111222
Murphy,ioos:station:wmo:42877:2,2024-03-01T12:33:00Z,27.7216,-91.1141,9.6,21.2,11111222
Murphy,ioos:station:wmo:42877:2,2024-03-01T12:43:00Z,27.7215,-91.1141,9.6,21.2,11111222
Murphy,ioos:station:wmo:42877:2,2024-03-01T12:53:00Z,27.7215,-91.1140,9.6,21.2,11111222
Murphy,ioos:station:wmo:42877:2,2024-03-01T13:03:00Z,27.7215,-91.1141,9.6,21.2,11111222
Murphy,ioos:station:wmo:42877:2,2024-03-01T13:13:00Z,27.7215,-91.1141,9.6,21.3,11111222
Murphy,ioos:station:wmo:42877:2,2024-03-01T13:23:00Z,27.7216,-91.1141,9.6,21.3,11111222
Murphy,ioos:station:wmo:42877:2,2024-03-01T13:33:00Z,27.7216,-91.1141,9.6,21.3,11111222
Murphy,ioos:station:wmo:42877:2,2024-03-01T13:43:00Z,27.7216,-91.1141,9.6,21.3,11111222
Murphy,ioos:station:wmo:42877:2,2024-03-01T13:53:00Z,27.7216,-91.1141,9.6,21.3,11111222
Murphy,ioos:station:wmo:42877:2,2024-03-01T14:03:00Z,27.7216,-91.1141,9.7,21.3,11111222
Murphy,ioos:station:wmo:42877:2,2024-03-01T14:13:00Z,27.7216,-91.1141,9.6,21.3,11111222
Murphy,ioos:station:wmo:42877:2,2024-03-01T14:23:00Z,27.7216,-91.1141,9.6,21.3,11111222
Murphy,ioos:station:wmo:42877:2,2024-03-01T14:33:00Z,27.7216,-91.1141,9.6,21.3,11111222
Murphy,ioos:station:wmo:42877:2,2024-03-01T14:43:00Z,27.7216,-91.1140,9.7,21.4,11111222
Murphy,ioos:station:wmo:42877:2,2024-03-01T14:53:00Z,27.7215,-91.1140,9.8,21.4,11111222
Murphy,ioos:station:wmo:42877:2,2024-03-01T15:03:00Z,27.7217,-91.1141,9.8,21.4,11111222
Murphy,ioos:station:wmo:42877:2,2024-03-01T15:13:00Z,27.7217,-91.1140,9.8,21.4,11111222
Murphy,ioos:station:wmo:42877:2,2024-03-01T15:23:00Z,27.7216,-91.1141,9.8,21.4,11111222
Murphy,ioos:station:wmo:42877:2,2024-03-01T15:33:00Z,27.7216,-91.1141,9.8,21.4,11111222
Murphy,ioos:station:wmo:42877:2,2024-03-01T15:43:00Z,27.7216,-91.1141,9.8,21.4,11111222
Murphy,ioos:station:wmo:42877:2,2024-03-01T15:53:00Z,27.7215,-91.1141,9.8,21.4,11111222
Murphy,ioos:station:wmo:42877:2,2024-03-01T16:03:00Z,27.7215,-91.1140,9.8,21.4,11111222
Murphy,ioos:station:wmo:42877:2,2024-03-01T16:13:00Z,27.7216,-91.1140,9.8,21.4,11111222
Murphy,ioos:station:wmo:42877:2,2024-03-01T16:23:00Z,27.7216,-91.1140,9.9,21.4,11111222
Murphy,ioos:station:wmo:42877:2,2024-03-01T16:33:00Z,27.7216,-91.1137,9.9,21.4,11111222
Murphy,ioos:station:wmo:42877:2,2024-03-01T16:43:00Z,27.7216,-91.1137,9.8,21.4,11111222
Murphy,ioos:station:wmo:42877:2,2024-03-01T16:53:00Z,27.7216,-91.1137,9.8,21.4,11111222
Murphy,ioos:station:wmo:42877:2,2024-03-01T17:03:00Z,27.7215,-91.1138,9.8,21.4,11111222
Murphy,ioos:station:wmo:42877:2,2024-03-01T17:13:00Z,27.7217,-91.1137,9.8,21.4,11111222
Murphy,ioos:station:wmo:42877:2,2024-03-01T17:23:00Z,27.7215,-91.1137,9.8,21.4,11111222
Murphy,ioos:station:wmo:42877:2,2024-03-01T17:33:00Z,27.7216,-91.1137,9.8,21.4,11111222
Murphy,ioos:station:wmo:42877:2,2024-03-01T17:43:00Z,27.7216,-91.1137,9.8,21.4,11111222
Murphy,ioos:station:wmo:42877:2,2024-03-01T17:53:00Z,27.7216,-91.1137,9.8,21.4,11111222
Murphy,ioos:station:wmo:42877:2,2024-03-01T18:03:00Z,27.7216,-91.1137,9.8,21.4,11111222
Murphy,ioos:station:wmo:42877:2,2024-03-01T18:13:00Z,27.7216,-91.1137,9.8,21.4,11111222
Murphy,ioos:station:wmo:42877:2,2024-03-01T18:23:00Z,27.7216,-91.1138,9.9,21.4,11111222
Murphy,ioos:station:wmo:42877:2,2024-03-01T18:33:00Z,27.7216,-91.1138,9.8,21.5,11111222
Murphy,ioos:station:wmo:42877:2,2024-03-01T18:43:00Z,27.7215,-91.1137,9.8,21.4,11111222
Murphy,ioos:station:wmo:42877:2,2024-03-01T18:53:00Z,27.7216,-91.1137,9.8,21.4,11111222
Murphy,ioos:station:wmo:42877:2,2024-03-01T19:03:00Z,27.7215,-91.1137,9.8,21.5,11111222
Murphy,ioos:station:wmo:42877:2,2024-03-01T19:13:00Z,27.7216,-91.1138,9.8,21.5,11111222
Murphy,ioos:station:wmo:42877:2,2024-03-01T19:23:00Z,27.7216,-91.1137,9.9,21.4,11111222
Murphy,ioos:station:wmo:42877:2,2024-03-01T19:33:00Z,27.7216,-91.1138,9.9,21.4,11111222
Murphy,ioos:station:wmo:42877:2,2024-03-01T19:43:00Z,27.7213,-91.1142,9.9,21.5,11111222
Murphy,ioos:station:wmo:42877:2,2024-03-01T19:53:00Z,27.7209,-91.1140,9.8,21.5,11111222
Murphy,ioos:station:wmo:42877:2,2024-03-01T20:03:00Z,27.7209,-91.1140,9.8,21.4,11111222
Murphy,ioos:station:wmo:42877:2,2024-03-01T20:13:00Z,27.7209,-91.1140,9.8,21.4,11111222
Murphy,ioos:station:wmo:42877:2,2024-03-01T20:23:00Z,27.7209,-91.1140,9.8,21.5,11111222
Murphy,ioos:station:wmo:42877:2,2024-03-01T20:33:00Z,27.7210,-91.1140,9.9,21.5,11111222
Murphy,ioos:station:wmo:42877:2,2024-03-01T20:43:00Z,27.7210,-91.1140,9.9,21.4,11111222
Murphy,ioos:station:wmo:42877:2,2024-03-01T20:53:00Z,27.7210,-91.1140,9.9,21.4,11111222
Murphy,ioos:station:wmo:42877:2,2024-03-01T21:03:00Z,27.7210,-91.1140,9.9,21.5,11111222
Murphy,ioos:station:wmo:42877:2,2024-03-01T21:13:00Z,27.7209,-91.1140,9.9,21.5,11111222
Murphy,ioos:station:wmo:42877:2,2024-03-01T21:23:00Z,27.7210,-91.1140,9.9,21.5,11111222
Murphy,ioos:station:wmo:42877:2,2024-03-01T21:33:00Z,27.7210,-91.1140,9.9,21.4,11111222
Murphy,ioos:station:wmo:42877:2,2024-03-01T21:43:00Z,27.7209,-91.1140,9.9,21.4,11111222
Murphy,ioos:station:wmo:42877:2,2024-03-01T21:53:00Z,27.7210,-91.1140,9.9,21.4,11111222
Murphy,ioos:station:wmo:42877:2,2024-03-01T22:03:00Z,27.7210,-91.1140,9.9,21.4,11111222
Murphy,ioos:station:wmo:42877:2,2024-03-01T22:13:00Z,27.7210,-91.1140,9.9,21.4,11111222
Murphy,ioos:station:wmo:42877:2,2024-03-01T22:23:00Z,27.7210,-91.1140,9.9,21.5,11111222
Murphy,ioos:station:wmo:42877:2,2024-03-01T22:33:00Z,27.7210,-91.1140,9.8,21.5,11111222
Murphy,ioos:station:wmo:42877:2,2024-03-01T22:43:00Z,27.7210,-91.1140,9.9,21.5,11111222
Murphy,ioos:station:wmo:42877:2,2024-03-01T22:53:00Z,27.7210,-91.1140,9.8,21.5,11111222
Murphy,ioos:station:wmo:42877:2,2024-03-01T23:03:00Z,27.7210,-91.1140,9.8,21.5,11111222
Murphy,ioos:station:wmo:42877:2,2024-03-01T23:13:00Z,27.7209,-91.1140,9.8,21.4,11111222
Murphy,ioos:station:wmo:42877:2,2024-03-01T23:23:00Z,27.7209,-91.1140,9.8,21.4,11111222
Murphy,ioos:station:wmo:42877:2,2024-03-01T23:33:00Z,27.7210,-91.1140,9.8,21.4,11111222
Murphy,ioos:station:wmo:42877:2,2024-03-01T23:43:00Z,27.7210,-91.1140,9.8,21.5,11111222
Murphy,ioos:station:wmo:42877:2,2024-03-01T23:53:00Z,27.7210,-91.1140,9.8,21.5,11111222
Murphy,ioos:station:wmo:42877:2,2024-03-02T00:03:00Z,27.7209,-91.1140,9.8,21.5,11111222
Murphy,ioos:station:wmo:42877:2,2024-03-02T00:13:00Z,27.7209,-91.1140,9.8,21.4,11111222
Murphy,ioos:station:wmo:42877:2,2024-03-02T00:23:00Z,27.7209,-91.1140,9.7,21.4,11111222
Murphy,ioos:station:wmo:42877:2,2024-03-02T00:33:00Z,27.7210,-91.1140,9.5,21.5,11111222
Murphy,ioos:station:wmo:42877:2,2024-03-02T00:43:00Z,27.7210,-91.1140,9.6,21.6,11111222
Murphy,ioos:station:wmo:42877:2,2024-03-02T00:53:00Z,27.7210,-91.1140,9.7,21.6,11111222
Murphy,ioos:station:wmo:42877:2,2024-03-02T01:03:00Z,27.7210,-91.1140,9.5,21.6,11111222
Murphy,ioos:station:wmo:42877:2,2024-03-02T01:13:00Z,27.7210,-91.1140,9.6,21.6,11111222
Murphy,ioos:station:wmo:42877:2,2024-03-02T01:23:00Z,27.7209,-91.1139,9.6,21.6,11111222
Murphy,ioos:station:wmo:42877:2,2024-03-02T01:33:00Z,27.7210,-91.1140,9.6,21.6,11111222
Murphy,ioos:station:wmo:42877:2,2024-03-02T01:43:00Z,27.7209,-91.1139,9.6,21.6,11111222
Murphy,ioos:station:wmo:42877:2,2024-03-02T01:53:00Z,27.7210,-91.1139,9.6,21.7,11111222
Murphy,ioos:station:wmo:42877:2,2024-03-02T02:03:00Z,27.7210,-91.1140,9.6,21.6,11111222
Murphy,ioos:station:wmo:42877:2,2024-03-02T02:13:00Z,27.7210,-91.1140,9.6,21.6,11111222
Murphy,ioos:station:wmo:42877:2,2024-03-02T02:23:00Z,27.7209,-91.1140,9.6,21.6,11111222
Murphy,ioos:station:wmo:42877:2,2024-03-02T02:33:00Z,27.7210,-91.1139,9.6,21.6,11111222
Murphy,ioos:station:wmo:42877:2,2024-03-02T02:43:00Z,27.7210,-91.1140,9.6,21.6,11111222
Murphy,ioos:station:wmo:42877:2,2024-03-02T02:53:00Z,27.7210,-91.1139,9.6,21.7,11111222
Murphy,ioos:station:wmo:42877:2,2024-03-02T03:03:00Z,27.7210,-91.1140,9.6,21.7,11111222
Murphy,ioos:station:wmo:42877:2,2024-03-02T03:13:00Z,27.7210,-91.1139,9.6,21.6,11111222
Murphy,ioos:station:wmo:42877:2,2024-03-02T03:23:00Z,27.7210,-91.1139,9.6,21.7,11111222
Murphy,ioos:station:wmo:42877:2,2024-03-02T03:33:00Z,27.7209,-91.1140,9.6,21.7,11111222
Murphy,ioos:station:wmo:42877:2,2024-03-02T03:43:00Z,27.7210,-91.1140,9.6,21.7,11111222
Murphy,ioos:station:wmo:42877:2,2024-03-02T03:53:00Z,27.7210,-91.1140,9.6,21.7,11111222
Murphy,ioos:station:wmo:42877:2,2024-03-02T04:03:00Z,27.7210,-91.1140,9.6,21.7,11111222
Murphy,ioos:station:wmo:42877:2,2024-03-02T04:13:00Z,27.7210,-91.1140,9.6,21.7,11111222
Murphy,ioos:station:wmo:42877:2,2024-03-02T04:23:00Z,27.7209,-91.1140,9.6,21.7,11111222
Murphy,ioos:station:wmo:42877:2,2024-03-02T04:33:00Z,27.7210,-91.1140,9.6,21.7,11111222
Murphy,ioos:station:wmo:42877:2,2024-03-02T04:43:00Z,27.7210,-91.1140,9.5,21.7,11111222
Murphy,ioos:station:wmo:42877:2,2024-03-02T04:53:00Z,27.7210,-91.1140,9.5,21.7,11111222
Murphy,ioos:station:wmo:42877:2,2024-03-02T05:03:00Z,27.7209,-91.1141,9.5,21.7,11111222
Murphy,ioos:station:wmo:42877:2,2024-03-02T05:13:00Z,27.7210,-91.1140,9.5,21.7,11111222
Murphy,ioos:station:wmo:42877:2,2024-03-02T05:23:00Z,27.7210,-91.1140,9.6,21.7,11111222
Murphy,ioos:station:wmo:42877:2,2024-03-02T05:33:00Z,27.7209,-91.1140,9.5,21.7,11111222
Murphy,ioos:station:wmo:42877:2,2024-03-02T05:43:00Z,27.7209,-91.1140,9.5,21.7,11111222
Murphy,ioos:station:wmo:42877:2,2024-03-02T05:53:00Z,27.7210,-91.1140,9.5,21.7,11111222
Murphy,ioos:station:wmo:42877:2,2024-03-02T06:03:00Z,27.7210,-91.1140,9.5,21.7,11111222
Murphy,ioos:station:wmo:42877:2,2024-03-02T06:13:00Z,27.7208,-91.1139,9.5,21.8,11111222
Murphy,ioos:station:wmo:42877:2,2024-03-02T06:23:00Z,27.7209,-91.1139,9.5,21.8,11111222
Murphy,ioos:station:wmo:42877:2,2024-03-02T06:33:00Z,27.7209,-91.1139,9.5,21.8,11111222
Murphy,ioos:station:wmo:42877:2,2024-03-02T06:43:00Z,27.7210,-91.1139,9.5,21.8,11111222
Murphy,ioos:station:wmo:42877:2,2024-03-02T06:53:00Z,27.7209,-91.1141,9.5,21.8,11111222
Murphy,ioos:station:wmo:42877:2,2024-03-02T07:03:00Z,27.7210,-91.1139,9.5,21.8,11111222
Murphy,ioos:station:wmo:42877:2,2024-03-02T07:13:00Z,27.7210,-91.1139,9.5,21.8,11111222
Murphy,ioos:station:wmo:42877:2,2024-03-02T07:23:00Z,27.7210,-91.1140,9.5,21.8,11111222
Murphy,ioos:station:wmo:42877:2,2024-03-02T07:33:00Z,27.7210,-91.1140,9.5,21.8,11111222
Murphy,ioos:station:wmo:42877:2,2024-03-02T07:43:00Z,27.7209,-91.1140,9.5,21.8,11111222
Murphy,ioos:station:wmo:42877:2,2024-03-02T07:53:00Z,27.7210,-91.1140,9.5,21.8,11111222
Murphy,ioos:station:wmo:42877:2,2024-03-02T08:03:00Z,27.7209,-91.1139,9.5,21.8,11111222
Murphy,ioos:station:wmo:42877:2,2024-03-02T08:13:00Z,27.7209,-91.1139,9.5,21.9,11111222
Murphy,ioos:station:wmo:42877:2,2024-03-02T08:23:00Z,27.7210,-91.1140,9.5,21.9,11111222
Murphy,ioos:station:wmo:42877:2,2024-03-02T08:33:00Z,27.7209,-91.1140,9.5,21.9,11111222
Murphy,ioos:station:wmo:42877:2,2024-03-02T08:43:00Z,27.7210,-91.1140,9.5,21.9,11111222
Murphy,ioos:station:wmo:42877:2,2024-03-02T08:53:00Z,27.7210,-91.1140,9.5,21.9,11111222
Murphy,ioos:station:wmo:42877:2,2024-03-02T09:03:00Z,27.7210,-91.1140,9.5,21.9,11111222
Murphy,ioos:station:wmo:42877:2,2024-03-02T09:13:00Z,27.7210,-91.1139,9.5,21.9,11111222
Murphy,ioos:station:wmo:42877:2,2024-03-02T09:23:00Z,27.7210,-91.1139,9.5,21.9,11111222
Murphy,ioos:station:wmo:42877:2,2024-03-02T09:33:00Z,27.7211,-91.1139,9.5,21.9,11111222
Murphy,ioos:station:wmo:42877:2,2024-03-02T09:43:00Z,27.7211,-91.1140,9.5,21.9,11111222
Murphy,ioos:station:wmo:42877:2,2024-03-02T09:53:00Z,27.7213,-91.1143,9.5,21.9,11111222
Murphy,ioos:station:wmo:42877:2,2024-03-02T10:03:00Z,27.7214,-91.1142,9.5,21.9,11111222
Murphy,ioos:station:wmo:42877:2,2024-03-02T10:13:00Z,27.7214,-91.1142,9.5,22.0,11111222
Murphy,ioos:station:wmo:42877:2,2024-03-02T10:23:00Z,27.7214,-91.1143,9.5,22.0,11111222
Murphy,ioos:station:wmo:42877:2,2024-03-02T10:33:00Z,27.7214,-91.1142,9.5,22.0,11111222
Murphy,ioos:station:wmo:42877:2,2024-03-02T10:43:00Z,27.7214,-91.1143,9.5,22.0,11111222
Murphy,ioos:station:wmo:42877:2,2024-03-02T10:53:00Z,27.7214,-91.1143,9.5,22.0,11111222
Murphy,ioos:station:wmo:42877:2,2024-03-02T11:03:00Z,27.7214,-91.1142,9.5,22.0,11111222
Murphy,ioos:station:wmo:42877:2,2024-03-02T11:13:00Z,27.7214,-91.1143,9.5,22.1,11111222
Murphy,ioos:station:wmo:42877:2,2024-03-02T11:23:00Z,27.7214,-91.1143,9.5,22.1,11111222
Murphy,ioos:station:wmo:42877:2,2024-03-02T11:33:00Z,27.7214,-91.1142,9.5,22.1,11111222
Murphy,ioos:station:wmo:42877:2,2024-03-02T11:43:00Z,27.7216,-91.1141,9.5,22.1,11111222
Murphy,ioos:station:wmo:42877:2,2024-03-02T11:53:00Z,27.7216,-91.1141,9.5,22.1,11111222
Murphy,ioos:station:wmo:42877:2,2024-03-02T12:03:00Z,27.7216,-91.1140,9.5,22.1,11111222
Murphy,ioos:station:wmo:42877:2,2024-03-02T12:13:00Z,27.7216,-91.1140,9.5,22.1,11111222
Murphy,ioos:station:wmo:42877:2,2024-03-02T12:23:00Z,27.7216,-91.1140,9.5,22.1,11111222
Murphy,ioos:station:wmo:42877:2,2024-03-02T12:33:00Z,27.7216,-91.1140,9.5,22.2,11111222
Murphy,ioos:station:wmo:42877:2,2024-03-02T12:43:00Z,27.7216,-91.1140,9.5,22.2,11111222
Murphy,ioos:station:wmo:42877:2,2024-03-02T12:53:00Z,27.7217,-91.1140,9.5,22.2,11111222
Murphy,ioos:station:wmo:42877:2,2024-03-02T13:03:00Z,27.7216,-91.1139,9.5,22.2,11111222
Murphy,ioos:station:wmo:42877:2,2024-03-02T13:13:00Z,27.7216,-91.1140,9.5,22.2,11111222
Murphy,ioos:station:wmo:42877:2,2024-03-02T13:23:00Z,27.7216,-91.1140,9.5,22.3,11111222
Murphy,ioos:station:wmo:42877:2,2024-03-02T13:33:00Z,27.7216,-91.1140,9.5,22.3,11111222
Murphy,ioos:station:wmo:42877:2,2024-03-02T13:43:00Z,27.7216,-91.1140,9.5,22.3,11111222
Murphy,ioos:station:wmo:42877:2,2024-03-02T13:53:00Z,27.7216,-91.1140,9.4,22.4,11111222
Murphy,ioos:station:wmo:42877:2,2024-03-02T14:03:00Z,27.7217,-91.1140,9.4,22.4,11111222
Murphy,ioos:station:wmo:42877:2,2024-03-02T14:13:00Z,27.7216,-91.1140,9.4,22.4,11111222
Murphy,ioos:station:wmo:42877:2,2024-03-02T14:23:00Z,27.7216,-91.1140,9.4,22.5,11111222
Murphy,ioos:station:wmo:42877:2,2024-03-02T14:33:00Z,27.7216,-91.1140,9.4,22.5,11111222
Murphy,ioos:station:wmo:42877:2,2024-03-02T14:43:00Z,27.7216,-91.1139,9.4,22.5,11111222
Murphy,ioos:station:wmo:42877:2,2024-03-02T14:53:00Z,27.7216,-91.1139,9.4,22.6,11111222
Murphy,ioos:station:wmo:42877:2,2024-03-02T15:03:00Z,27.7216,-91.1140,9.4,22.6,11111222
Murphy,ioos:station:wmo:42877:2,2024-03-02T15:13:00Z,27.7216,-91.1140,9.4,22.7,11111222
Murphy,ioos:station:wmo:42877:2,2024-03-02T15:23:00Z,27.7216,-91.1139,9.4,22.7,11111222
Murphy,ioos:station:wmo:42877:2,2024-03-02T15:33:00Z,27.7216,-91.1140,9.4,22.8,11111222
Murphy,ioos:station:wmo:42877:2,2024-03-02T15:43:00Z,27.7216,-91.1140,9.5,22.8,11111222
Murphy,ioos:station:wmo:42877:2,2024-03-02T15:53:00Z,27.7216,-91.1140,9.5,22.7,11111222
Murphy,ioos:station:wmo:42877:2,2024-03-02T16:03:00Z,27.7216,-91.1140,9.5,22.7,11111222
Murphy,ioos:station:wmo:42877:2,2024-03-02T16:13:00Z,27.7216,-91.1140,9.7,22.7,11111222
Murphy,ioos:station:wmo:42877:2,2024-03-02T16:23:00Z,27.7216,-91.1140,9.8,22.7,11111222
Murphy,ioos:station:wmo:42877:2,2024-03-02T16:33:00Z,27.7216,-91.1140,9.7,22.8,11111222
Murphy,ioos:station:wmo:42877:2,2024-03-02T16:43:00Z,27.7216,-91.1140,9.7,22.9,11111222
Murphy,ioos:station:wmo:42877:2,2024-03-02T16:53:00Z,27.7216,-91.1140,9.7,22.8,11111222
Murphy,ioos:station:wmo:42877:2,2024-03-02T17:03:00Z,27.7215,-91.1140,9.7,22.9,11111222
Murphy,ioos:station:wmo:42877:2,2024-03-02T17:13:00Z,27.7216,-91.1140,9.6,22.9,11111222
Murphy,ioos:station:wmo:42877:2,2024-03-02T17:23:00Z,27.7216,-91.1140,9.6,22.9,11111222
Murphy,ioos:station:wmo:42877:2,2024-03-02T17:33:00Z,27.7216,-91.1139,9.6,22.9,11111222
Murphy,ioos:station:wmo:42877:2,2024-03-02T17:43:00Z,27.7216,-91.1140,9.6,23.0,11111222
Murphy,ioos:station:wmo:42877:2,2024-03-02T17:53:00Z,27.7215,-91.1140,9.6,23.1,11111222
Murphy,ioos:station:wmo:42877:2,2024-03-02T18:03:00Z,27.7216,-91.1140,9.5,23.2,11111222
Murphy,ioos:station:wmo:42877:2,2024-03-02T18:13:00Z,27.7216,-91.1140,9.5,23.3,11111222
Murphy,ioos:station:wmo:42877:2,2024-03-02T18:23:00Z,27.7217,-91.1140,9.5,23.3,11111222
Murphy,ioos:station:wmo:42877:2,2024-03-02T18:33:00Z,27.7216,-91.1140,9.5,23.3,11111222
Murphy,ioos:station:wmo:42877:2,2024-03-02T18:43:00Z,27.7217,-91.1140,9.6,23.4,11111222
Murphy,ioos:station:wmo:42877:2,2024-03-02T18:53:00Z,27.7216,-91.1140,9.6,23.3,11111222
Murphy,ioos:station:wmo:42877:2,2024-03-02T19:03:00Z,27.7216,-91.1140,9.7,23.4,11111222
Murphy,ioos:station:wmo:42877:2,2024-03-02T19:13:00Z,27.7216,-91.1140,9.8,23.3,11111222
Murphy,ioos:station:wmo:42877:2,2024-03-02T19:23:00Z,27.7216,-91.1140,9.8,23.2,11111222
Murphy,ioos:station:wmo:42877:2,2024-03-02T19:33:00Z,27.7216,-91.1140,9.8,23.3,11111222
Murphy,ioos:station:wmo:42877:2,2024-03-02T19:43:00Z,27.7216,-91.1140,9.9,23.4,11111222
Murphy,ioos:station:wmo:42877:2,2024-03-02T19:53:00Z,27.7216,-91.1140,9.7,23.4,11111222
Murphy,ioos:station:wmo:42877:2,2024-03-02T20:03:00Z,27.7216,-91.1140,9.7,23.5,11111222
Murphy,ioos:station:wmo:42877:2,2024-03-02T20:13:00Z,27.7216,-91.1140,9.6,23.5,11111222
Murphy,ioos:station:wmo:42877:2,2024-03-02T20:23:00Z,27.7216,-91.1140,9.6,23.5,11111222
Murphy,ioos:station:wmo:42877:2,2024-03-02T20:33:00Z,27.7216,-91.1140,9.7,23.5,11111222